• In Netherlands
  • List of Countries
  • For 7 days
  • Water Temperature
  • Satellite Maps
  • Weather Map
  • Weather Widgets
  • user-avatar
    Login

    Hourly Weather San Juan

    Today, 28 June, Wednesday

    Time Temperature Precipitation Wind Pressure Humidity
    00:00 +8°C° 0 mm 1 mps 710 mmHg 85%
    01:00 +8°C° 0 mm 1 mps 710 mmHg 84%
    02:00 +8°C° 0 mm 1 mps 709 mmHg 82%
    03:00 +8°C° 0 mm 1 mps 709 mmHg 80%
    04:00 +7°C° 0 mm 1 mps 709 mmHg 78%
    05:00 +7°C° 0 mm 1 mps 709 mmHg 76%
    06:00 +7°C° 0 mm 2 mps 709 mmHg 73%
    07:00 +7°C° 0 mm 2 mps 709 mmHg 71%
    08:00 +9°C° 0 mm 2 mps 709 mmHg 61%
    09:00 +12°C° 0 mm 2 mps 709 mmHg 51%
    10:00 +14°C° 0 mm 2 mps 709 mmHg 42%
    11:00 +15°C° 0 mm 2 mps 709 mmHg 38%
    12:00 +16°C° 0 mm 2 mps 708 mmHg 35%
    13:00 +17°C° 0 mm 2 mps 708 mmHg 31%
    14:00 +18°C° 0 mm 1 mps 708 mmHg 32%
    15:00 +16°C° 0 mm 1 mps 708 mmHg 33%
    16:00 +16°C° 0 mm 1 mps 708 mmHg 34%
    17:00 +14°C° 0 mm 1 mps 708 mmHg 38%
    18:00 +13°C° 0 mm 1 mps 708 mmHg 42%
    19:00 +11°C° 0 mm 1 mps 708 mmHg 45%
    20:00 +10°C° 0 mm 2 mps 708 mmHg 43%
    21:00 +10°C° 0 mm 2 mps 708 mmHg 41%
    22:00 +10°C° 0 mm 2 mps 709 mmHg 39%
    23:00 +10°C° 0 mm 2 mps 709 mmHg 38%

    Tomorrow, 29 June, Thursday

    Time Temperature Precipitation Wind Pressure Humidity
    00:00 +9°C° 0 mm 2 mps 708 mmHg 37%
    01:00 +9°C° 0 mm 2 mps 708 mmHg 37%
    02:00 +9°C° 0 mm 3 mps 708 mmHg 37%
    03:00 +9°C° 0 mm 3 mps 708 mmHg 37%
    04:00 +9°C° 0 mm 3 mps 708 mmHg 37%
    05:00 +9°C° 0 mm 3 mps 708 mmHg 37%
    06:00 +9°C° 0 mm 3 mps 708 mmHg 36%
    07:00 +9°C° 0 mm 3 mps 708 mmHg 36%
    08:00 +12°C° 0 mm 4 mps 708 mmHg 31%
    09:00 +15°C° 0 mm 4 mps 708 mmHg 26%
    10:00 +18°C° 0 mm 4 mps 708 mmHg 20%
    11:00 +19°C° 0 mm 3 mps 708 mmHg 19%
    12:00 +20°C° 0 mm 3 mps 707 mmHg 17%
    13:00 +21°C° 0 mm 2 mps 707 mmHg 16%
    14:00 +20°C° 0 mm 2 mps 707 mmHg 18%
    15:00 +20°C° 0 mm 1 mps 707 mmHg 20%
    16:00 +19°C° 0 mm 1 mps 707 mmHg 22%
    17:00 +18°C° 0 mm 1 mps 707 mmHg 25%
    18:00 +15°C° 0 mm 1 mps 707 mmHg 28%
    19:00 +13°C° 0 mm 1 mps 707 mmHg 32%
    20:00 +13°C° 0 mm 1 mps 708 mmHg 31%
    21:00 +13°C° 0 mm 1 mps 708 mmHg 31%
    22:00 +12°C° 0 mm 1 mps 708 mmHg 31%
    23:00 +12°C° 0 mm 1 mps 708 mmHg 32%

    Day after tomorrow, 30 June, Friday

    Time Temperature Precipitation Wind Pressure Humidity
    00:00 +11°C° 0 mm 1 mps 708 mmHg 33%
    01:00 +11°C° 0 mm 1 mps 707 mmHg 33%
    02:00 +11°C° 0 mm 1 mps 707 mmHg 37%
    03:00 +10°C° 0 mm 1 mps 707 mmHg 40%
    04:00 +10°C° 0 mm 1 mps 707 mmHg 44%
    05:00 +10°C° 0 mm 1 mps 708 mmHg 45%
    06:00 +10°C° 0 mm 1 mps 708 mmHg 46%
    07:00 +10°C° 0 mm 1 mps 708 mmHg 46%
    08:00 +13°C° 0 mm 1 mps 709 mmHg 39%
    09:00 +16°C° 0 mm 1 mps 710 mmHg 32%
    10:00 +19°C° 0 mm 1 mps 711 mmHg 25%
    11:00 +19°C° 0 mm 2 mps 710 mmHg 24%
    12:00 +20°C° 0 mm 2 mps 710 mmHg 23%
    13:00 +20°C° 0 mm 3 mps 709 mmHg 22%
    14:00 +20°C° 0 mm 2 mps 709 mmHg 25%
    15:00 +19°C° 0 mm 2 mps 709 mmHg 28%
    16:00 +18°C° 0 mm 2 mps 709 mmHg 31%
    17:00 +16°C° 0 mm 2 mps 710 mmHg 36%
    18:00 +15°C° 0 mm 2 mps 710 mmHg 41%
    19:00 +13°C° 0 mm 2 mps 710 mmHg 45%
    20:00 +13°C° 0 mm 2 mps 711 mmHg 48%
    21:00 +12°C° 0 mm 2 mps 711 mmHg 50%
    22:00 +12°C° 0 mm 2 mps 711 mmHg 52%
    23:00 +10°C° 0 mm 2 mps 711 mmHg 55%

    1 July, Saturday

    Time Temperature Precipitation Wind Pressure Humidity
    00:00 +10°C° 0 mm 2 mps 711 mmHg 57%
    01:00 +10°C° 0 mm 1 mps 710 mmHg 59%
    02:00 +10°C° 0 mm 1 mps 710 mmHg 61%
    03:00 +10°C° 0 mm 1 mps 710 mmHg 64%
    04:00 +9°C° 0 mm 1 mps 710 mmHg 66%
    05:00 +9°C° 0 mm 1 mps 710 mmHg 64%
    06:00 +9°C° 0 mm 1 mps 710 mmHg 62%
    07:00 +10°C° 0 mm 1 mps 710 mmHg 61%
    08:00 +12°C° 0 mm 2 mps 711 mmHg 52%
    09:00 +15°C° 0 mm 2 mps 711 mmHg 43%
    10:00 +17°C° 0 mm 2 mps 711 mmHg 34%
    11:00 +18°C° 0 mm 2 mps 711 mmHg 32%
    12:00 +20°C° 0 mm 2 mps 710 mmHg 30%
    13:00 +21°C° 0 mm 2 mps 710 mmHg 28%
    14:00 +20°C° 0 mm 2 mps 709 mmHg 31%
    15:00 +20°C° 0 mm 1 mps 709 mmHg 34%
    16:00 +20°C° 0 mm 1 mps 709 mmHg 36%
    17:00 +18°C° 0 mm 1 mps 709 mmHg 41%
    18:00 +16°C° 0 mm 1 mps 709 mmHg 46%
    19:00 +14°C° 0 mm 2 mps 709 mmHg 51%
    20:00 +14°C° 0 mm 2 mps 709 mmHg 54%
    21:00 +13°C° 0 mm 2 mps 709 mmHg 57%
    22:00 +13°C° 0 mm 2 mps 709 mmHg 59%
    23:00 +13°C° 0 mm 2 mps 709 mmHg 62%

    2 July, Sunday

    Time Temperature Precipitation Wind Pressure Humidity
    00:00 +12°C° 0 mm 2 mps 709 mmHg 65%
    01:00 +12°C° 0 mm 2 mps 709 mmHg 68%
    02:00 +12°C° 0 mm 2 mps 708 mmHg 68%
    03:00 +12°C° 0 mm 2 mps 708 mmHg 68%
    04:00 +11°C° 0 mm 3 mps 708 mmHg 68%
    05:00 +11°C° 0 mm 3 mps 708 mmHg 67%
    06:00 +11°C° 0 mm 3 mps 708 mmHg 66%
    07:00 +11°C° 0 mm 3 mps 708 mmHg 65%
    08:00 +14°C° 0 mm 3 mps 709 mmHg 55%
    09:00 +17°C° 0 mm 4 mps 709 mmHg 45%
    10:00 +20°C° 0 mm 4 mps 709 mmHg 35%
    11:00 +21°C° 0 mm 4 mps 709 mmHg 32%
    12:00 +22°C° 0 mm 4 mps 708 mmHg 29%
    13:00 +25°C° 0 mm 4 mps 708 mmHg 26%
    14:00 +24°C° 0 mm 3 mps 707 mmHg 28%
    15:00 +22°C° 0 mm 3 mps 707 mmHg 31%
    16:00 +21°C° 0 mm 2 mps 707 mmHg 33%
    17:00 +19°C° 0 mm 2 mps 707 mmHg 37%
    18:00 +18°C° 0 mm 2 mps 707 mmHg 41%
    19:00 +16°C° 0 mm 3 mps 707 mmHg 45%
    20:00 +16°C° 0 mm 3 mps 706 mmHg 47%
    21:00 +14°C° 0 mm 3 mps 706 mmHg 49%
    22:00 +14°C° 0 mm 3 mps 706 mmHg 51%
    23:00 +14°C° 0 mm 3 mps 706 mmHg 54%

    3 July, Monday

    Time Temperature Precipitation Wind Pressure Humidity
    00:00 +13°C° 0 mm 3 mps 705 mmHg 57%
    01:00 +13°C° 0 mm 3 mps 705 mmHg 60%
    02:00 +13°C° 0 mm 3 mps 704 mmHg 60%
    03:00 +13°C° 0 mm 3 mps 704 mmHg 60%
    04:00 +13°C° 0 mm 3 mps 704 mmHg 60%
    05:00 +13°C° 0 mm 3 mps 703 mmHg 59%
    06:00 +13°C° 0 mm 3 mps 703 mmHg 59%
    07:00 +12°C° 0 mm 3 mps 703 mmHg 58%
    08:00 +15°C° 0 mm 4 mps 704 mmHg 49%
    09:00 +19°C° 0 mm 4 mps 704 mmHg 40%
    10:00 +22°C° 0 mm 5 mps 704 mmHg 30%
    11:00 +23°C° 0 mm 5 mps 703 mmHg 28%
    12:00 +26°C° 0 mm 5 mps 702 mmHg 25%
    13:00 +27°C° 0 mm 5 mps 702 mmHg 22%
    14:00 +26°C° 0 mm 5 mps 701 mmHg 25%
    15:00 +25°C° 0 mm 4 mps 701 mmHg 27%
    16:00 +23°C° 0 mm 4 mps 701 mmHg 30%
    17:00 +21°C° 0 mm 3 mps 701 mmHg 35%
    18:00 +20°C° 0 mm 3 mps 701 mmHg 39%
    19:00 +18°C° 0 mm 2 mps 702 mmHg 43%
    20:00 +17°C° 0 mm 2 mps 702 mmHg 45%
    21:00 +17°C° 0 mm 2 mps 702 mmHg 47%
    22:00 +16°C° 0 mm 2 mps 703 mmHg 49%
    23:00 +16°C° 0 mm 2 mps 702 mmHg 51%
    Show more